Time,TemperatureF,DewpointF,PressureIn,WindDirection,WindDirectionDegrees,WindSpeedMPH,WindSpeedGustMPH,Humidity,HourlyPrecipIn,Conditions,Clouds,dailyrainin,SolarRadiationWatts/m^2,SoftwareType,DateUTC
2013-06-30 00:02:00,58.0,56.0,-100.00,SSE,150,0.0,2.0,93,0.00,,,0.00,4.000000,,2013-06-30 08:02:00,
2013-06-30 00:11:00,58.0,56.0,-100.00,SSE,150,0.0,2.0,93,0.00,,,0.00,4.000000,,2013-06-30 08:11:00,
2013-06-30 00:22:00,58.0,56.0,-100.00,SSE,150,0.0,2.0,93,0.00,,,0.00,4.000000,,2013-06-30 08:22:00,
2013-06-30 00:53:00,58.0,56.0,-100.00,NNE,12,2.0,5.0,94,0.00,,,0.00,0.000000,,2013-06-30 08:53:00,
2013-06-30 01:01:00,58.0,56.0,-100.00,NNE,12,2.0,5.0,94,0.00,,,0.00,0.000000,,2013-06-30 09:01:00,
2013-06-30 01:11:00,58.0,56.0,-100.00,NNE,12,2.0,5.0,94,0.00,,,0.00,0.000000,,2013-06-30 09:11:00,
2013-06-30 01:23:00,58.0,56.0,-100.00,NNE,12,2.0,5.0,94,0.00,,,0.00,0.000000,,2013-06-30 09:23:00,
2013-06-30 01:53:00,56.0,53.0,-100.00,NW,311,2.0,4.0,89,0.00,,,0.00,0.000000,,2013-06-30 09:53:00,
2013-06-30 02:02:00,56.0,53.0,-100.00,NW,311,2.0,4.0,89,0.00,,,0.00,0.000000,,2013-06-30 10:02:00,
2013-06-30 02:11:00,56.0,53.0,-100.00,NW,311,2.0,4.0,89,0.00,,,0.00,0.000000,,2013-06-30 10:11:00,
2013-06-30 02:22:00,56.0,53.0,-100.00,NW,311,2.0,4.0,89,0.00,,,0.00,0.000000,,2013-06-30 10:22:00,
2013-06-30 02:53:00,55.0,53.0,-100.00,West,273,2.0,4.0,92,0.00,,,0.00,0.000000,,2013-06-30 10:53:00,
2013-06-30 03:02:00,55.0,53.0,-100.00,West,273,2.0,4.0,92,0.00,,,0.00,0.000000,,2013-06-30 11:02:00,
2013-06-30 03:11:00,55.0,53.0,-100.00,West,273,2.0,4.0,92,0.00,,,0.00,0.000000,,2013-06-30 11:11:00,
2013-06-30 03:22:00,55.0,53.0,-100.00,West,273,2.0,4.0,92,0.00,,,0.00,0.000000,,2013-06-30 11:22:00,
2013-06-30 03:53:00,55.0,52.0,-100.00,NNW,342,1.0,6.0,88,0.00,,,0.00,0.000000,,2013-06-30 11:53:00,
2013-06-30 04:01:00,55.0,52.0,-100.00,NNW,342,1.0,6.0,88,0.00,,,0.00,0.000000,,2013-06-30 12:01:00,
2013-06-30 04:11:00,55.0,52.0,-100.00,NNW,342,1.0,6.0,88,0.00,,,0.00,0.000000,,2013-06-30 12:11:00,
2013-06-30 04:24:00,55.0,52.0,-100.00,NNW,342,1.0,6.0,88,0.00,,,0.00,0.000000,,2013-06-30 12:24:00,
2013-06-30 04:52:00,54.0,52.0,-100.00,NNW,338,2.0,4.0,93,0.00,,,0.00,0.000000,,2013-06-30 12:52:00,
2013-06-30 05:02:00,54.0,52.0,-100.00,NNW,338,2.0,4.0,93,0.00,,,0.00,0.000000,,2013-06-30 13:02:00,
2013-06-30 05:12:00,54.0,52.0,-100.00,NNW,338,2.0,4.0,93,0.00,,,0.00,0.000000,,2013-06-30 13:12:00,
2013-06-30 05:22:00,54.0,52.0,-100.00,NNW,338,2.0,4.0,93,0.00,,,0.00,0.000000,,2013-06-30 13:22:00,
2013-06-30 05:53:00,53.0,49.0,-100.00,South,171,0.0,4.0,87,0.00,,,0.00,3.000000,,2013-06-30 13:53:00,
2013-06-30 06:02:00,53.0,49.0,-100.00,South,171,0.0,4.0,87,0.00,,,0.00,3.000000,,2013-06-30 14:02:00,
2013-06-30 06:11:00,53.0,49.0,-100.00,South,171,0.0,4.0,87,0.00,,,0.00,3.000000,,2013-06-30 14:11:00,
2013-06-30 06:22:00,53.0,49.0,-100.00,South,171,0.0,4.0,87,0.00,,,0.00,3.000000,,2013-06-30 14:22:00,
2013-06-30 06:52:00,53.0,51.0,-100.00,SSE,152,0.0,0.0,94,0.00,,,0.00,9.000000,,2013-06-30 14:52:00,
2013-06-30 07:02:00,53.0,51.0,-100.00,SSE,152,0.0,0.0,94,0.00,,,0.00,9.000000,,2013-06-30 15:02:00,
2013-06-30 07:12:00,53.0,51.0,-100.00,SSE,152,0.0,0.0,94,0.00,,,0.00,9.000000,,2013-06-30 15:12:00,
2013-06-30 07:22:00,53.0,51.0,-100.00,SSE,152,0.0,0.0,94,0.00,,,0.00,9.000000,,2013-06-30 15:22:00,
2013-06-30 07:53:00,54.0,53.0,-100.00,East,100,0.0,0.0,96,0.00,,,0.00,24.000000,,2013-06-30 15:53:00,
2013-06-30 08:01:00,54.0,53.0,-100.00,East,100,0.0,0.0,96,0.00,,,0.00,24.000000,,2013-06-30 16:01:00,
2013-06-30 08:11:00,54.0,53.0,-100.00,East,100,0.0,0.0,96,0.00,,,0.00,24.000000,,2013-06-30 16:11:00,
2013-06-30 08:21:00,54.0,53.0,-100.00,East,100,0.0,0.0,96,0.00,,,0.00,24.000000,,2013-06-30 16:21:00,
2013-06-30 08:53:00,55.0,52.0,-100.00,SE,129,0.0,2.0,89,0.00,,,0.00,42.000000,,2013-06-30 16:53:00,
2013-06-30 09:01:00,55.0,52.0,-100.00,SE,129,0.0,2.0,89,0.00,,,0.00,42.000000,,2013-06-30 17:01:00,
2013-06-30 09:11:00,55.0,52.0,-100.00,SE,129,0.0,2.0,89,0.00,,,0.00,42.000000,,2013-06-30 17:11:00,
2013-06-30 09:23:00,55.0,52.0,-100.00,SE,129,0.0,2.0,89,0.00,,,0.00,42.000000,,2013-06-30 17:23:00,
2013-06-30 09:52:00,55.0,51.0,-100.00,NE,48,1.0,3.0,86,0.00,,,0.00,48.000000,,2013-06-30 17:52:00,
2013-06-30 10:01:00,55.0,51.0,-100.00,NE,48,1.0,3.0,86,0.00,,,0.00,48.000000,,2013-06-30 18:01:00,
2013-06-30 10:12:00,55.0,51.0,-100.00,NE,48,1.0,3.0,86,0.00,,,0.00,48.000000,,2013-06-30 18:12:00,
2013-06-30 10:22:00,55.0,51.0,-100.00,NE,48,1.0,3.0,86,0.00,,,0.00,48.000000,,2013-06-30 18:22:00,
2013-06-30 10:53:00,57.0,52.0,-100.00,ENE,68,2.0,5.0,82,0.00,,,0.00,123.000000,,2013-06-30 18:53:00,
2013-06-30 11:01:00,57.0,52.0,-100.00,ENE,68,2.0,5.0,82,0.00,,,0.00,123.000000,,2013-06-30 19:01:00,
2013-06-30 11:11:00,57.0,52.0,-100.00,ENE,68,2.0,5.0,82,0.00,,,0.00,123.000000,,2013-06-30 19:11:00,
2013-06-30 11:22:00,57.0,52.0,-100.00,ENE,68,2.0,5.0,82,0.00,,,0.00,123.000000,,2013-06-30 19:22:00,
2013-06-30 11:53:00,59.0,52.0,-100.00,NNE,18,2.0,6.0,77,0.00,,,0.00,238.000000,,2013-06-30 19:53:00,
2013-06-30 12:01:00,59.0,52.0,-100.00,NNE,18,2.0,6.0,77,0.00,,,0.00,238.000000,,2013-06-30 20:01:00,
2013-06-30 12:11:00,59.0,52.0,-100.00,NNE,18,2.0,6.0,77,0.00,,,0.00,238.000000,,2013-06-30 20:11:00,
2013-06-30 12:22:00,59.0,52.0,-100.00,NNE,18,2.0,6.0,77,0.00,,,0.00,238.000000,,2013-06-30 20:22:00,
2013-06-30 12:52:00,59.0,51.0,-100.00,NE,50,2.0,4.0,76,0.00,,,0.00,160.000000,,2013-06-30 20:52:00,
2013-06-30 13:01:00,59.0,51.0,-100.00,NE,50,2.0,4.0,76,0.00,,,0.00,160.000000,,2013-06-30 21:01:00,
2013-06-30 13:11:00,59.0,51.0,-100.00,NE,50,2.0,4.0,76,0.00,,,0.00,160.000000,,2013-06-30 21:11:00,
2013-06-30 13:22:00,59.0,51.0,-100.00,NE,50,2.0,4.0,76,0.00,,,0.00,160.000000,,2013-06-30 21:22:00,
2013-06-30 13:53:00,58.0,51.0,-100.00,NNE,14,2.0,6.0,77,0.00,,,0.00,158.000000,,2013-06-30 21:53:00,
2013-06-30 14:01:00,58.0,51.0,-100.00,NNE,14,2.0,6.0,77,0.00,,,0.00,158.000000,,2013-06-30 22:01:00,
2013-06-30 14:11:00,58.0,51.0,-100.00,NNE,14,2.0,6.0,77,0.00,,,0.00,158.000000,,2013-06-30 22:11:00,
2013-06-30 14:22:00,58.0,51.0,-100.00,NNE,14,2.0,6.0,77,0.00,,,0.00,158.000000,,2013-06-30 22:22:00,
2013-06-30 14:53:00,57.0,51.0,-100.00,SE,125,2.0,5.0,79,0.00,,,0.00,144.000000,,2013-06-30 22:53:00,
2013-06-30 15:01:00,57.0,51.0,-100.00,SE,125,2.0,5.0,79,0.00,,,0.00,144.000000,,2013-06-30 23:01:00,
2013-06-30 15:11:00,57.0,51.0,-100.00,SE,125,2.0,5.0,79,0.00,,,0.00,144.000000,,2013-06-30 23:11:00,
2013-06-30 15:22:00,57.0,51.0,-100.00,SE,125,2.0,5.0,79,0.00,,,0.00,144.000000,,2013-06-30 23:22:00,
2013-06-30 15:53:00,57.0,50.0,-100.00,ESE,112,2.0,5.0,78,0.00,,,0.00,154.000000,,2013-06-30 23:53:00,
2013-06-30 16:01:00,57.0,50.0,-100.00,ESE,112,2.0,5.0,78,0.00,,,0.00,154.000000,,2013-07-01 00:01:00,
2013-06-30 16:11:00,57.0,50.0,-100.00,ESE,112,2.0,5.0,78,0.00,,,0.00,154.000000,,2013-07-01 00:11:00,
2013-06-30 16:22:00,57.0,50.0,-100.00,ESE,112,2.0,5.0,78,0.00,,,0.00,154.000000,,2013-07-01 00:22:00,
2013-06-30 16:52:00,56.0,51.0,-100.00,East,82,1.0,5.0,82,0.00,,,0.00,60.000000,,2013-07-01 00:52:00,
2013-06-30 17:01:00,56.0,51.0,-100.00,East,82,1.0,5.0,82,0.00,,,0.00,60.000000,,2013-07-01 01:01:00,
2013-06-30 17:11:00,56.0,51.0,-100.00,East,82,1.0,5.0,82,0.00,,,0.00,60.000000,,2013-07-01 01:11:00,
2013-06-30 17:22:00,56.0,51.0,-100.00,East,82,1.0,5.0,82,0.00,,,0.00,60.000000,,2013-07-01 01:22:00,
2013-06-30 17:52:00,56.0,51.0,-100.00,ENE,63,1.0,3.0,84,0.00,,,0.00,63.000000,,2013-07-01 01:52:00,
2013-06-30 18:02:00,56.0,51.0,-100.00,ENE,63,1.0,3.0,84,0.00,,,0.00,63.000000,,2013-07-01 02:02:00,
2013-06-30 18:11:00,56.0,51.0,-100.00,ENE,63,1.0,3.0,84,0.00,,,0.00,63.000000,,2013-07-01 02:11:00,
2013-06-30 18:22:00,56.0,51.0,-100.00,ENE,63,1.0,3.0,84,0.00,,,0.00,63.000000,,2013-07-01 02:22:00,
2013-06-30 18:54:00,56.0,51.0,-100.00,East,83,3.0,5.0,84,0.00,,,-99.99,74.000000,,2013-07-01 02:54:00,
2013-06-30 19:01:00,56.0,51.0,-100.00,East,83,3.0,5.0,84,0.00,,,-99.99,74.000000,,2013-07-01 03:01:00,
2013-06-30 19:11:00,56.0,51.0,-100.00,East,83,3.0,5.0,84,0.00,,,-99.99,74.000000,,2013-07-01 03:11:00,
2013-06-30 19:23:00,56.0,51.0,-100.00,East,83,3.0,5.0,84,0.00,,,-99.99,74.000000,,2013-07-01 03:23:00,
2013-06-30 19:52:00,56.0,52.0,-100.00,NNW,333,3.0,7.0,85,0.00,,,0.00,71.000000,,2013-07-01 03:52:00,
2013-06-30 20:01:00,56.0,52.0,-100.00,NNW,333,3.0,7.0,85,0.00,,,0.00,71.000000,,2013-07-01 04:01:00,
2013-06-30 20:11:00,56.0,52.0,-100.00,NNW,333,3.0,7.0,85,0.00,,,0.00,71.000000,,2013-07-01 04:11:00,
2013-06-30 20:22:00,56.0,52.0,-100.00,NNW,333,3.0,7.0,85,0.00,,,0.00,71.000000,,2013-07-01 04:22:00,
2013-06-30 20:53:00,57.0,53.0,-100.00,WNW,286,3.0,7.0,86,0.00,,,0.00,46.000000,,2013-07-01 04:53:00,
2013-06-30 21:01:00,57.0,53.0,-100.00,WNW,286,3.0,7.0,86,0.00,,,0.00,46.000000,,2013-07-01 05:01:00,
2013-06-30 21:11:00,57.0,53.0,-100.00,WNW,286,3.0,7.0,86,0.00,,,0.00,46.000000,,2013-07-01 05:11:00,
2013-06-30 21:22:00,57.0,53.0,-100.00,WNW,286,3.0,7.0,86,0.00,,,0.00,46.000000,,2013-07-01 05:22:00,
2013-06-30 21:52:00,57.0,51.0,-100.00,ESE,111,3.0,6.0,81,0.00,,,0.00,27.000000,,2013-07-01 05:52:00,
2013-06-30 22:02:00,57.0,51.0,-100.00,ESE,111,3.0,6.0,81,0.00,,,0.00,27.000000,,2013-07-01 06:02:00,
2013-06-30 22:12:00,57.0,51.0,-100.00,ESE,111,3.0,6.0,81,0.00,,,0.00,27.000000,,2013-07-01 06:12:00,
2013-06-30 22:24:00,57.0,51.0,-100.00,ESE,111,3.0,6.0,81,0.00,,,0.00,27.000000,,2013-07-01 06:24:00,
2013-06-30 22:53:00,55.0,50.0,-100.00,WSW,250,1.0,8.0,82,0.00,,,-99.99,14.000000,,2013-07-01 06:53:00,
2013-06-30 23:01:00,55.0,50.0,-100.00,WSW,250,1.0,8.0,82,0.00,,,-99.99,14.000000,,2013-07-01 07:01:00,
2013-06-30 23:11:00,55.0,50.0,-100.00,WSW,250,1.0,8.0,82,0.00,,,-99.99,14.000000,,2013-07-01 07:11:00,
2013-06-30 23:22:00,55.0,50.0,-100.00,WSW,250,1.0,8.0,82,0.00,,,-99.99,14.000000,,2013-07-01 07:22:00,
2013-06-30 23:53:00,53.0,50.0,-100.00,SW,216,2.0,5.0,91,0.00,,,0.00,3.000000,,2013-07-01 07:53:00,